Time,TemperatureF,DewpointF,PressureIn,WindDirection,WindDirectionDegrees,WindSpeedMPH,WindSpeedGustMPH,Humidity,HourlyPrecipIn,Conditions,Clouds,dailyrainin,SoftwareType,DateUTC
2013-07-15 00:01:00,68.9,66.5,30.09,ENE,66,3.0,3.0,92,0.00,,---,0.00,VWS V14.01,2013-07-15 05:01:00,
2013-07-15 00:06:00,68.8,66.7,30.09,NE,40,7.0,7.0,93,0.00,,---,0.00,VWS V14.01,2013-07-15 05:06:00,
2013-07-15 00:11:00,68.8,66.7,30.09,ENE,72,1.0,1.0,93,0.00,,---,0.00,VWS V14.01,2013-07-15 05:11:00,
2013-07-15 00:16:00,68.6,66.5,30.10,ENE,64,3.0,6.0,93,0.00,,---,0.00,VWS V14.01,2013-07-15 05:16:00,
2013-07-15 00:21:00,68.6,66.5,30.10,ENE,76,1.0,1.0,93,0.00,,---,0.00,VWS V14.01,2013-07-15 05:21:00,
2013-07-15 00:26:00,68.6,66.5,30.10,ENE,69,5.0,5.0,93,0.00,,---,0.00,VWS V14.01,2013-07-15 05:26:00,
2013-07-15 00:31:00,68.6,66.2,30.10,East,85,1.0,3.0,92,0.00,,---,0.00,VWS V14.01,2013-07-15 05:31:00,
2013-07-15 00:36:00,68.6,66.5,30.10,NE,51,6.0,6.0,93,0.00,,---,0.00,VWS V14.01,2013-07-15 05:36:00,
2013-07-15 00:41:00,68.6,66.5,30.10,East,89,0.0,0.0,93,0.00,,---,0.00,VWS V14.01,2013-07-15 05:41:00,
2013-07-15 00:46:00,68.6,66.5,30.10,East,85,0.0,5.0,93,0.00,,---,0.00,VWS V14.01,2013-07-15 05:46:00,
2013-07-15 00:51:00,68.6,66.5,30.10,ENE,66,1.0,5.0,93,0.00,,---,0.00,VWS V14.01,2013-07-15 05:51:00,
2013-07-15 00:56:00,68.4,66.6,30.10,ENE,71,0.0,6.0,94,0.00,,---,0.00,VWS V14.01,2013-07-15 05:56:00,
2013-07-15 01:01:00,68.4,66.6,30.10,East,83,0.0,6.0,94,0.00,,---,0.00,VWS V14.01,2013-07-15 06:01:00,
2013-07-15 01:06:00,68.4,66.6,30.10,ENE,64,2.0,5.0,94,0.00,,---,0.00,VWS V14.01,2013-07-15 06:06:00,
2013-07-15 01:11:00,68.4,66.6,30.10,ENE,58,0.0,5.0,94,0.00,,---,0.00,VWS V14.01,2013-07-15 06:11:00,
2013-07-15 01:16:00,68.4,66.6,30.09,East,93,0.0,7.0,94,0.00,,---,0.00,VWS V14.01,2013-07-15 06:16:00,
2013-07-15 01:21:00,68.4,66.6,30.09,ENE,73,1.0,7.0,94,0.00,,---,0.00,VWS V14.01,2013-07-15 06:21:00,
2013-07-15 01:25:00,68.4,66.6,30.09,ENE,66,0.0,3.0,94,0.00,,---,0.00,VWS V14.01,2013-07-15 06:25:00,
2013-07-15 01:30:00,68.4,66.6,30.09,ENE,64,0.0,4.0,94,0.00,,---,0.00,VWS V14.01,2013-07-15 06:30:00,
2013-07-15 01:35:00,68.3,66.5,30.09,ENE,64,0.0,5.0,94,0.00,,---,0.00,VWS V14.01,2013-07-15 06:35:00,
2013-07-15 01:40:00,68.3,66.8,30.09,ENE,59,0.0,5.0,95,0.00,,---,0.00,VWS V14.01,2013-07-15 06:40:00,
2013-07-15 01:45:00,68.3,66.8,30.09,ENE,73,0.0,2.0,95,0.00,,---,0.00,VWS V14.01,2013-07-15 06:45:00,
2013-07-15 01:50:00,68.3,66.5,30.09,ENE,72,1.0,5.0,94,0.00,,---,0.00,VWS V14.01,2013-07-15 06:50:00,
2013-07-15 01:55:00,68.1,66.3,30.09,ENE,76,0.0,2.0,94,0.00,,---,0.00,VWS V14.01,2013-07-15 06:55:00,
2013-07-15 02:00:00,67.9,66.4,30.09,ENE,59,3.0,5.0,95,0.00,,---,0.00,VWS V14.01,2013-07-15 07:00:00,
2013-07-15 02:05:00,67.8,66.3,30.09,ENE,76,1.0,2.0,95,0.00,,---,0.00,VWS V14.01,2013-07-15 07:05:00,
2013-07-15 02:10:00,67.8,66.3,30.09,ENE,58,0.0,5.0,95,0.00,,---,0.00,VWS V14.01,2013-07-15 07:10:00,
2013-07-15 02:15:00,67.6,66.4,30.09,NE,56,3.0,5.0,96,0.00,,---,0.00,VWS V14.01,2013-07-15 07:15:00,
2013-07-15 02:20:00,67.4,66.2,30.09,ENE,58,2.0,5.0,96,0.00,,---,0.00,VWS V14.01,2013-07-15 07:20:00,
2013-07-15 02:25:00,67.3,66.4,30.09,ENE,62,0.0,4.0,97,0.00,,---,0.00,VWS V14.01,2013-07-15 07:25:00,
2013-07-15 02:30:00,67.3,66.4,30.08,ENE,71,0.0,5.0,97,0.00,,---,0.00,VWS V14.01,2013-07-15 07:30:00,
2013-07-15 02:35:00,67.1,66.2,30.08,NE,54,0.0,2.0,97,0.00,,---,0.00,VWS V14.01,2013-07-15 07:35:00,
2013-07-15 02:40:00,67.1,66.2,30.08,ENE,75,0.0,3.0,97,0.00,,---,0.00,VWS V14.01,2013-07-15 07:40:00,
2013-07-15 02:45:00,67.1,66.5,30.08,East,80,0.0,1.0,98,0.00,,---,0.00,VWS V14.01,2013-07-15 07:45:00,
2013-07-15 02:50:00,67.1,66.5,30.08,East,99,2.0,2.0,98,0.00,,---,0.00,VWS V14.01,2013-07-15 07:50:00,
2013-07-15 02:55:00,67.3,66.7,30.08,East,95,0.0,1.0,98,0.00,,---,0.00,VWS V14.01,2013-07-15 07:55:00,
2013-07-15 03:00:00,67.3,66.4,30.08,East,95,0.0,1.0,97,0.00,,---,0.00,VWS V14.01,2013-07-15 08:00:00,
2013-07-15 03:05:00,67.1,66.2,30.08,East,93,1.0,5.0,97,0.00,,---,0.00,VWS V14.01,2013-07-15 08:05:00,
2013-07-15 03:10:00,67.1,66.2,30.08,ENE,66,2.0,5.0,97,0.00,,---,0.00,VWS V14.01,2013-07-15 08:10:00,
2013-07-15 03:15:00,67.1,66.2,30.08,East,90,0.0,5.0,97,0.00,,---,0.00,VWS V14.01,2013-07-15 08:15:00,
2013-07-15 03:20:00,67.1,66.5,30.08,East,86,0.0,5.0,98,0.00,,---,0.00,VWS V14.01,2013-07-15 08:20:00,
2013-07-15 03:25:00,66.9,66.3,30.08,East,85,0.0,1.0,98,0.00,,---,0.00,VWS V14.01,2013-07-15 08:25:00,
2013-07-15 03:30:00,66.9,66.3,30.08,ENE,66,0.0,3.0,98,0.00,,---,0.00,VWS V14.01,2013-07-15 08:30:00,
2013-07-15 03:35:00,66.9,66.3,30.08,ENE,78,0.0,1.0,98,0.00,,---,0.00,VWS V14.01,2013-07-15 08:35:00,
2013-07-15 03:40:00,66.8,66.2,30.08,ENE,75,2.0,3.0,98,0.00,,---,0.00,VWS V14.01,2013-07-15 08:40:00,
2013-07-15 03:45:00,66.9,66.3,30.08,ENE,68,0.0,3.0,98,0.00,,---,0.00,VWS V14.01,2013-07-15 08:45:00,
2013-07-15 03:50:00,66.8,66.2,30.08,ENE,69,0.0,3.0,98,0.00,,---,0.00,VWS V14.01,2013-07-15 08:50:00,
2013-07-15 03:55:00,66.8,66.2,30.08,ENE,65,0.0,1.0,98,0.00,,---,0.00,VWS V14.01,2013-07-15 08:55:00,
2013-07-15 04:00:00,66.8,66.5,30.08,ENE,69,0.0,1.0,99,0.00,,---,0.00,VWS V14.01,2013-07-15 09:00:00,
2013-07-15 04:05:00,66.8,66.5,30.08,ENE,66,0.0,2.0,99,0.00,,---,0.00,VWS V14.01,2013-07-15 09:05:00,
2013-07-15 04:10:00,66.8,66.5,30.08,ENE,65,0.0,2.0,99,0.00,,---,0.00,VWS V14.01,2013-07-15 09:10:00,
2013-07-15 04:15:00,66.6,66.3,30.08,ENE,68,0.0,0.0,99,0.00,,---,0.00,VWS V14.01,2013-07-15 09:15:00,
2013-07-15 04:20:00,66.6,66.3,30.08,ENE,68,0.0,0.0,99,0.00,,---,0.00,VWS V14.01,2013-07-15 09:20:00,
2013-07-15 04:25:00,66.6,66.3,30.08,ENE,71,0.0,0.0,99,0.00,,---,0.00,VWS V14.01,2013-07-15 09:25:00,
2013-07-15 04:30:00,66.6,66.3,30.08,ENE,71,0.0,0.0,99,0.00,,---,0.00,VWS V14.01,2013-07-15 09:30:00,
2013-07-15 04:35:00,66.4,66.1,30.08,ENE,71,0.0,0.0,99,0.00,,---,0.00,VWS V14.01,2013-07-15 09:35:00,
2013-07-15 04:40:00,66.4,66.1,30.08,ENE,71,0.0,0.0,99,0.00,,---,0.00,VWS V14.01,2013-07-15 09:40:00,
2013-07-15 04:45:00,66.4,66.1,30.08,ENE,71,0.0,0.0,99,0.00,,---,0.00,VWS V14.01,2013-07-15 09:45:00,
2013-07-15 04:50:00,66.3,66.0,30.08,ENE,71,0.0,0.0,99,0.00,,---,0.00,VWS V14.01,2013-07-15 09:50:00,
2013-07-15 04:55:00,66.1,65.8,30.08,ENE,71,0.0,0.0,99,0.00,,---,0.00,VWS V14.01,2013-07-15 09:55:00,
2013-07-15 05:00:00,66.4,66.1,30.08,ENE,71,0.0,0.0,99,0.00,,---,0.00,VWS V14.01,2013-07-15 10:00:00,
2013-07-15 05:05:00,66.3,66.0,30.08,ENE,71,0.0,0.0,99,0.00,,---,0.00,VWS V14.01,2013-07-15 10:05:00,
2013-07-15 05:10:00,66.4,66.1,30.08,ENE,72,0.0,0.0,99,0.00,,---,0.00,VWS V14.01,2013-07-15 10:10:00,
2013-07-15 05:15:00,66.4,66.1,30.08,ENE,72,0.0,0.0,99,0.00,,---,0.00,VWS V14.01,2013-07-15 10:15:00,
2013-07-15 05:20:00,66.6,66.3,30.08,ENE,76,0.0,0.0,99,0.00,,---,0.00,VWS V14.01,2013-07-15 10:20:00,
2013-07-15 05:25:00,66.8,66.5,30.08,ENE,78,0.0,0.0,99,0.00,,---,0.00,VWS V14.01,2013-07-15 10:25:00,
2013-07-15 05:30:00,66.8,66.2,30.08,ENE,78,0.0,0.0,98,0.00,,---,0.00,VWS V14.01,2013-07-15 10:30:00,
2013-07-15 05:35:00,66.8,66.2,30.08,ENE,78,0.0,0.0,98,0.00,,---,0.00,VWS V14.01,2013-07-15 10:35:00,
2013-07-15 05:40:00,66.8,66.2,30.08,ESE,113,0.0,0.0,98,0.00,,---,0.00,VWS V14.01,2013-07-15 10:40:00,
2013-07-15 05:45:00,66.9,66.0,30.08,ESE,113,0.0,0.0,97,0.00,,---,0.00,VWS V14.01,2013-07-15 10:45:00,
2013-07-15 05:50:00,66.9,65.7,30.08,ESE,114,0.0,0.0,96,0.00,,---,0.00,VWS V14.01,2013-07-15 10:50:00,
2013-07-15 05:55:00,66.9,65.7,30.08,ESE,114,0.0,0.0,96,0.00,,---,0.00,VWS V14.01,2013-07-15 10:55:00,
2013-07-15 06:00:00,66.8,65.6,30.09,ESE,114,0.0,0.0,96,0.00,,---,0.00,VWS V14.01,2013-07-15 11:00:00,
2013-07-15 06:05:00,66.8,65.6,30.09,ESE,114,0.0,0.0,96,0.00,,---,0.00,VWS V14.01,2013-07-15 11:05:00,
2013-07-15 06:10:00,66.6,65.4,30.09,ESE,114,0.0,0.0,96,0.00,,---,0.00,VWS V14.01,2013-07-15 11:10:00,
2013-07-15 06:15:00,66.6,65.4,30.09,ESE,114,0.0,0.0,96,0.00,,---,0.00,VWS V14.01,2013-07-15 11:15:00,
2013-07-15 06:20:00,66.6,65.4,30.09,ESE,114,0.0,0.0,96,0.00,,---,0.00,VWS V14.01,2013-07-15 11:20:00,
2013-07-15 06:25:00,66.6,65.4,30.09,ESE,114,0.0,0.0,96,0.00,,---,0.00,VWS V14.01,2013-07-15 11:25:00,
2013-07-15 06:30:00,66.6,65.4,30.10,ESE,114,0.0,0.0,96,0.00,,---,0.00,VWS V14.01,2013-07-15 11:30:00,
2013-07-15 06:35:00,66.6,65.4,30.10,ESE,114,0.0,0.0,96,0.00,,---,0.00,VWS V14.01,2013-07-15 11:35:00,
2013-07-15 06:40:00,66.8,65.6,30.10,ESE,114,0.0,0.0,96,0.00,,---,0.00,VWS V14.01,2013-07-15 11:40:00,
2013-07-15 06:45:00,66.9,65.7,30.10,ESE,114,0.0,0.0,96,0.00,,---,0.00,VWS V14.01,2013-07-15 11:45:00,
2013-07-15 06:50:00,67.3,66.1,30.10,ESE,114,0.0,0.0,96,0.00,,---,0.00,VWS V14.01,2013-07-15 11:50:00,
2013-07-15 06:55:00,67.4,65.9,30.10,ESE,114,0.0,0.0,95,0.00,,---,0.00,VWS V14.01,2013-07-15 11:55:00,
2013-07-15 07:00:00,67.6,66.1,30.10,ESE,114,0.0,0.0,95,0.00,,---,0.00,VWS V14.01,2013-07-15 12:00:00,
2013-07-15 07:05:00,67.8,66.3,30.10,ESE,114,0.0,0.0,95,0.00,,---,0.00,VWS V14.01,2013-07-15 12:05:00,
2013-07-15 07:10:00,68.1,66.6,30.10,ESE,114,0.0,0.0,95,0.00,,---,0.00,VWS V14.01,2013-07-15 12:10:00,
2013-07-15 07:15:00,68.4,66.9,30.10,ESE,114,0.0,0.0,95,0.00,,---,0.00,VWS V14.01,2013-07-15 12:15:00,
2013-07-15 07:20:00,68.8,67.3,30.10,ESE,114,0.0,0.0,95,0.00,,---,0.00,VWS V14.01,2013-07-15 12:20:00,
2013-07-15 07:25:00,69.1,67.3,30.10,ESE,114,2.0,2.0,94,0.00,,---,0.00,VWS V14.01,2013-07-15 12:25:00,
2013-07-15 07:30:00,69.1,67.0,30.10,ESE,114,1.0,2.0,93,0.00,,---,0.00,VWS V14.01,2013-07-15 12:30:00,
2013-07-15 07:35:00,69.4,67.3,30.10,SE,128,2.0,3.0,93,0.00,,---,0.00,VWS V14.01,2013-07-15 12:35:00,
2013-07-15 07:40:00,69.6,67.2,30.10,SE,141,1.0,3.0,92,0.00,,---,0.00,VWS V14.01,2013-07-15 12:40:00,
2013-07-15 07:45:00,69.9,67.2,30.10,SSE,164,0.0,3.0,91,0.00,,---,0.00,VWS V14.01,2013-07-15 12:45:00,
2013-07-15 07:50:00,70.1,67.0,30.11,South,181,1.0,3.0,90,0.00,,---,0.00,VWS V14.01,2013-07-15 12:50:00,
2013-07-15 07:55:00,70.4,67.0,30.11,SSW,202,2.0,6.0,89,0.00,,---,0.00,VWS V14.01,2013-07-15 12:55:00,
2013-07-15 08:00:00,70.6,66.6,30.11,SSW,196,1.0,6.0,87,0.00,,---,0.00,VWS V14.01,2013-07-15 13:00:00,
2013-07-15 08:05:00,70.9,66.8,30.11,SSW,213,2.0,5.0,87,0.00,,---,0.00,VWS V14.01,2013-07-15 13:05:00,
2013-07-15 08:10:00,71.3,67.2,30.11,SW,215,2.0,5.0,87,0.00,,---,0.00,VWS V14.01,2013-07-15 13:10:00,
2013-07-15 08:15:00,71.5,66.4,30.11,SW,224,2.0,5.0,84,0.00,,---,0.00,VWS V14.01,2013-07-15 13:15:00,
2013-07-15 08:20:00,71.6,66.5,30.11,SW,229,5.0,5.0,84,0.00,,---,0.00,VWS V14.01,2013-07-15 13:20:00,
2013-07-15 08:25:00,72.0,66.6,30.11,SW,236,3.0,6.0,83,0.00,,---,0.00,VWS V14.01,2013-07-15 13:25:00,
2013-07-15 08:30:00,72.3,66.5,30.11,SW,230,3.0,6.0,82,0.00,,---,0.00,VWS V14.01,2013-07-15 13:30:00,
2013-07-15 08:35:00,72.8,66.3,30.11,SW,223,4.0,6.0,80,0.00,,---,0.00,VWS V14.01,2013-07-15 13:35:00,
2013-07-15 08:40:00,73.0,67.2,30.11,SW,227,2.0,6.0,82,0.00,,---,0.00,VWS V14.01,2013-07-15 13:40:00,
2013-07-15 08:45:00,73.5,66.6,30.11,SSW,198,1.0,5.0,79,0.00,,---,0.00,VWS V14.01,2013-07-15 13:45:00,
2013-07-15 08:50:00,73.9,67.3,30.11,SW,226,3.0,6.0,80,0.00,,---,0.00,VWS V14.01,2013-07-15 13:50:00,
2013-07-15 08:55:00,74.2,67.3,30.11,SW,234,6.0,7.0,79,0.00,,---,0.00,VWS V14.01,2013-07-15 13:55:00,
2013-07-15 09:00:00,74.4,66.7,30.11,WSW,258,5.0,7.0,77,0.00,,---,0.00,VWS V14.01,2013-07-15 14:00:00,
2013-07-15 09:05:00,74.7,67.0,30.12,WSW,247,7.0,7.0,77,0.00,,---,0.00,VWS V14.01,2013-07-15 14:05:00,
2013-07-15 09:10:00,74.9,67.2,30.12,SSW,206,7.0,7.0,77,0.00,,---,0.00,VWS V14.01,2013-07-15 14:10:00,
2013-07-15 09:15:00,75.1,67.0,30.12,SW,226,1.0,7.0,76,0.00,,---,0.00,VWS V14.01,2013-07-15 14:15:00,
2013-07-15 09:20:00,75.3,67.2,30.12,SW,229,3.0,7.0,76,0.00,,---,0.00,VWS V14.01,2013-07-15 14:20:00,
2013-07-15 09:25:00,75.4,66.9,30.12,SW,233,6.0,6.0,75,0.00,,---,0.00,VWS V14.01,2013-07-15 14:25:00,
2013-07-15 09:30:00,75.6,67.9,30.12,West,270,3.0,7.0,77,0.00,,---,0.00,VWS V14.01,2013-07-15 14:30:00,
2013-07-15 09:35:00,75.8,67.7,30.12,SW,226,5.0,7.0,76,0.00,,---,0.00,VWS V14.01,2013-07-15 14:35:00,
2013-07-15 09:40:00,76.1,67.2,30.12,West,272,3.0,7.0,74,0.00,,---,0.00,VWS V14.01,2013-07-15 14:40:00,
2013-07-15 09:44:00,76.7,67.8,30.12,SSW,200,3.0,5.0,74,0.00,,---,0.00,VWS V14.01,2013-07-15 14:44:00,
2013-07-15 09:50:00,76.8,67.5,30.12,SSW,210,5.0,6.0,73,0.00,,---,0.00,VWS V14.01,2013-07-15 14:50:00,
2013-07-15 09:55:00,76.8,67.1,30.12,SW,224,2.0,6.0,72,0.00,,---,0.00,VWS V14.01,2013-07-15 14:55:00,
2013-07-15 10:00:00,77.2,67.9,30.12,SW,217,3.0,6.0,73,0.00,,---,0.00,VWS V14.01,2013-07-15 15:00:00,
2013-07-15 10:05:00,77.4,67.7,30.11,WSW,246,3.0,7.0,72,0.00,,---,0.00,VWS V14.01,2013-07-15 15:05:00,
2013-07-15 10:10:00,77.7,68.8,30.11,WSW,237,5.0,7.0,74,0.00,,---,0.00,VWS V14.01,2013-07-15 15:10:00,
2013-07-15 10:15:00,77.9,68.6,30.11,SW,215,3.0,7.0,73,0.00,,---,0.00,VWS V14.01,2013-07-15 15:15:00,
2013-07-15 10:20:00,78.3,68.9,30.11,WSW,237,2.0,7.0,73,0.00,,---,0.00,VWS V14.01,2013-07-15 15:20:00,
2013-07-15 10:25:00,78.3,67.7,30.11,SSW,209,2.0,8.0,70,0.00,,---,0.00,VWS V14.01,2013-07-15 15:25:00,
2013-07-15 10:30:00,78.6,68.4,30.11,SW,234,7.0,8.0,71,0.00,,---,0.00,VWS V14.01,2013-07-15 15:30:00,
2013-07-15 10:35:00,79.0,68.0,30.11,SW,226,3.0,7.0,69,0.00,,---,0.00,VWS V14.01,2013-07-15 15:35:00,
2013-07-15 10:40:00,79.0,68.8,30.11,SW,226,2.0,7.0,71,0.00,,---,0.00,VWS V14.01,2013-07-15 15:40:00,
2013-07-15 10:45:00,79.4,68.8,30.11,SW,236,5.0,9.0,70,0.00,,---,0.00,VWS V14.01,2013-07-15 15:45:00,
2013-07-15 10:50:00,79.8,68.7,30.11,WSW,237,6.0,9.0,69,0.00,,---,0.00,VWS V14.01,2013-07-15 15:50:00,
2013-07-15 10:55:00,79.8,67.9,30.11,WSW,237,3.0,7.0,67,0.00,,---,0.00,VWS V14.01,2013-07-15 15:55:00,
2013-07-15 11:00:00,79.9,69.2,30.11,SSW,203,2.0,7.0,70,0.00,,---,0.00,VWS V14.01,2013-07-15 16:00:00,
2013-07-15 11:05:00,80.1,67.7,30.11,West,268,3.0,7.0,66,0.00,,---,0.00,VWS V14.01,2013-07-15 16:05:00,
2013-07-15 11:10:00,80.3,69.2,30.11,SSW,208,2.0,7.0,69,0.00,,---,0.00,VWS V14.01,2013-07-15 16:10:00,
2013-07-15 11:15:00,80.5,69.4,30.11,South,182,5.0,7.0,69,0.00,,---,0.00,VWS V14.01,2013-07-15 16:15:00,
2013-07-15 11:20:00,80.7,68.7,30.11,SSW,196,2.0,7.0,67,0.00,,---,0.00,VWS V14.01,2013-07-15 16:20:00,
2013-07-15 11:25:00,80.7,68.3,30.11,SW,229,6.0,8.0,66,0.00,,---,0.00,VWS V14.01,2013-07-15 16:25:00,
2013-07-15 11:30:00,80.9,68.0,30.11,WSW,246,1.0,8.0,65,0.00,,---,0.00,VWS V14.01,2013-07-15 16:30:00,
2013-07-15 11:35:00,80.9,68.0,30.11,SSW,200,2.0,8.0,65,0.00,,---,0.00,VWS V14.01,2013-07-15 16:35:00,
2013-07-15 11:40:00,80.9,67.6,30.11,WSW,256,2.0,8.0,64,0.00,,---,0.00,VWS V14.01,2013-07-15 16:40:00,
2013-07-15 11:45:00,81.1,68.7,30.11,SSW,205,2.0,6.0,66,0.00,,---,0.00,VWS V14.01,2013-07-15 16:45:00,
2013-07-15 11:50:00,81.2,68.8,30.11,SSW,192,6.0,8.0,66,0.00,,---,0.00,VWS V14.01,2013-07-15 16:50:00,
2013-07-15 11:56:00,81.2,66.9,30.11,SSW,203,2.0,10.0,62,0.00,,---,0.00,VWS V14.01,2013-07-15 16:56:00,
2013-07-15 12:01:00,81.6,69.2,30.11,SW,226,2.0,10.0,66,0.00,,---,0.00,VWS V14.01,2013-07-15 17:01:00,
2013-07-15 12:05:00,81.8,68.4,30.11,SW,220,4.0,10.0,64,0.00,,---,0.00,VWS V14.01,2013-07-15 17:05:00,
2013-07-15 12:10:00,81.8,68.0,30.11,SSW,193,3.0,10.0,63,0.00,,---,0.00,VWS V14.01,2013-07-15 17:10:00,
2013-07-15 12:16:00,82.0,68.2,30.10,SSW,200,7.0,10.0,63,0.00,,---,0.00,VWS V14.01,2013-07-15 17:16:00,
2013-07-15 12:21:00,82.2,66.9,30.10,SSW,202,3.0,11.0,60,0.00,,---,0.00,VWS V14.01,2013-07-15 17:21:00,
2013-07-15 12:26:00,82.2,66.5,30.10,SSW,206,6.0,10.0,59,0.00,,---,0.00,VWS V14.01,2013-07-15 17:26:00,
2013-07-15 12:31:00,82.2,66.5,30.10,SW,229,4.0,10.0,59,0.00,,---,0.00,VWS V14.01,2013-07-15 17:31:00,
2013-07-15 12:36:00,81.8,65.6,30.10,SW,227,6.0,8.0,58,0.00,,---,0.00,VWS V14.01,2013-07-15 17:36:00,
2013-07-15 12:41:00,81.8,66.6,30.10,SSW,193,6.0,6.0,60,0.00,,---,0.00,VWS V14.01,2013-07-15 17:41:00,
2013-07-15 12:46:00,82.4,64.1,30.10,WSW,244,6.0,11.0,54,0.00,,---,0.00,VWS V14.01,2013-07-15 17:46:00,
2013-07-15 12:51:00,82.8,66.0,30.10,SW,234,6.0,11.0,57,0.00,,---,0.00,VWS V14.01,2013-07-15 17:51:00,
2013-07-15 12:56:00,82.8,65.5,30.10,SW,236,3.0,8.0,56,0.00,,---,0.00,VWS V14.01,2013-07-15 17:56:00,
2013-07-15 13:01:00,82.4,67.1,30.10,WSW,240,5.0,8.0,60,0.00,,---,0.00,VWS V14.01,2013-07-15 18:01:00,
2013-07-15 13:06:00,82.0,66.3,30.10,WSW,244,3.0,7.0,59,0.00,,---,0.00,VWS V14.01,2013-07-15 18:06:00,
2013-07-15 13:11:00,82.4,66.2,30.10,SSW,195,3.0,7.0,58,0.00,,---,0.00,VWS V14.01,2013-07-15 18:11:00,
2013-07-15 13:16:00,83.0,65.7,30.10,WSW,237,8.0,12.0,56,0.00,,---,0.00,VWS V14.01,2013-07-15 18:16:00,
2013-07-15 13:21:00,82.8,67.5,30.10,SSW,199,2.0,3.0,60,0.00,,---,0.00,VWS V14.01,2013-07-15 18:21:00,
2013-07-15 13:26:00,83.2,65.9,30.10,SW,215,3.0,6.0,56,0.00,,---,0.00,VWS V14.01,2013-07-15 18:26:00,
2013-07-15 13:31:00,83.6,66.3,30.10,SSW,200,2.0,3.0,56,0.00,,---,0.00,VWS V14.01,2013-07-15 18:31:00,
2013-07-15 13:36:00,83.8,65.9,30.10,SSW,193,6.0,11.0,55,0.00,,---,0.00,VWS V14.01,2013-07-15 18:36:00,
2013-07-15 13:41:00,83.8,67.5,30.10,WSW,256,7.0,7.0,58,0.00,,---,0.00,VWS V14.01,2013-07-15 18:41:00,
2013-07-15 13:46:00,83.8,67.0,30.09,SSW,192,5.0,8.0,57,0.00,,---,0.00,VWS V14.01,2013-07-15 18:46:00,
2013-07-15 13:51:00,83.6,66.8,30.09,SW,215,5.0,5.0,57,0.00,,---,0.00,VWS V14.01,2013-07-15 18:51:00,
2013-07-15 13:56:00,83.8,65.9,30.09,West,260,4.0,13.0,55,0.00,,---,0.00,VWS V14.01,2013-07-15 18:56:00,
2013-07-15 14:01:00,83.0,67.2,30.09,SW,219,5.0,6.0,59,0.00,,---,0.00,VWS V14.01,2013-07-15 19:01:00,
2013-07-15 14:06:00,83.2,67.4,30.09,WSW,239,8.0,11.0,59,0.00,,---,0.00,VWS V14.01,2013-07-15 19:06:00,
2013-07-15 14:11:00,83.4,65.6,30.09,SW,227,7.0,8.0,55,0.00,,---,0.00,VWS V14.01,2013-07-15 19:11:00,
2013-07-15 14:16:00,83.6,66.3,30.09,SSW,199,2.0,10.0,56,0.00,,---,0.00,VWS V14.01,2013-07-15 19:16:00,
2013-07-15 14:21:00,84.1,65.7,30.09,SW,229,8.0,11.0,54,0.00,,---,0.00,VWS V14.01,2013-07-15 19:21:00,
2013-07-15 14:26:00,84.3,66.4,30.09,South,182,10.0,11.0,55,0.00,,---,0.00,VWS V14.01,2013-07-15 19:26:00,
2013-07-15 14:32:00,83.6,65.7,30.09,SW,215,2.0,7.0,55,0.00,,---,0.00,VWS V14.01,2013-07-15 19:32:00,
2013-07-15 14:37:00,83.2,69.3,30.09,SSW,198,2.0,7.0,63,0.00,,---,0.00,VWS V14.01,2013-07-15 19:37:00,
2013-07-15 14:42:00,83.8,69.9,30.09,SW,227,6.0,11.0,63,0.00,,---,0.00,VWS V14.01,2013-07-15 19:42:00,
2013-07-15 14:47:00,83.4,68.1,30.09,SSW,202,2.0,11.0,60,0.00,,---,0.00,VWS V14.01,2013-07-15 19:47:00,
2013-07-15 14:52:00,83.6,66.8,30.09,South,179,12.0,12.0,57,0.00,,---,0.00,VWS V14.01,2013-07-15 19:52:00,
2013-07-15 14:57:00,83.0,67.7,30.09,SSW,198,6.0,12.0,60,0.00,,---,0.00,VWS V14.01,2013-07-15 19:57:00,
2013-07-15 15:02:00,83.2,67.9,30.08,SSW,195,5.0,7.0,60,0.00,,---,0.00,VWS V14.01,2013-07-15 20:02:00,
2013-07-15 15:07:00,83.2,66.9,30.08,South,185,6.0,9.0,58,0.00,,---,0.00,VWS V14.01,2013-07-15 20:07:00,
2013-07-15 15:12:00,83.6,68.7,30.08,SSW,196,3.0,7.0,61,0.00,,---,0.00,VWS V14.01,2013-07-15 20:12:00,
2013-07-15 15:17:00,84.0,67.7,30.08,SW,230,7.0,12.0,58,0.00,,---,0.00,VWS V14.01,2013-07-15 20:17:00,
2013-07-15 15:22:00,83.8,68.0,30.08,SSW,203,7.0,10.0,59,0.00,,---,0.00,VWS V14.01,2013-07-15 20:22:00,
2013-07-15 15:27:00,83.8,68.4,30.08,SSW,202,4.0,10.0,60,0.00,,---,0.00,VWS V14.01,2013-07-15 20:27:00,
2013-07-15 15:32:00,83.2,68.8,30.08,SSW,206,7.0,7.0,62,0.00,,---,0.00,VWS V14.01,2013-07-15 20:32:00,
2013-07-15 15:37:00,82.8,67.0,30.08,SSW,212,6.0,10.0,59,0.00,,---,0.00,VWS V14.01,2013-07-15 20:37:00,
2013-07-15 15:42:00,82.4,66.2,30.08,SSW,196,10.0,14.0,58,0.00,,---,0.00,VWS V14.01,2013-07-15 20:42:00,
2013-07-15 15:47:00,82.4,67.1,30.08,South,191,5.0,14.0,60,0.00,,---,0.00,VWS V14.01,2013-07-15 20:47:00,
2013-07-15 15:52:00,82.8,67.5,30.08,SSW,208,5.0,10.0,60,0.00,,---,0.00,VWS V14.01,2013-07-15 20:52:00,
2013-07-15 15:57:00,83.4,67.6,30.08,SSW,212,6.0,10.0,59,0.00,,---,0.00,VWS V14.01,2013-07-15 20:57:00,
2013-07-15 16:02:00,83.4,67.6,30.08,South,188,7.0,8.0,59,0.00,,---,0.00,VWS V14.01,2013-07-15 21:02:00,
2013-07-15 16:08:00,82.8,67.0,30.08,SSE,164,3.0,11.0,59,0.00,,---,0.00,VWS V14.01,2013-07-15 21:08:00,
2013-07-15 16:13:00,83.0,66.7,30.08,SSW,199,6.0,8.0,58,0.00,,---,0.00,VWS V14.01,2013-07-15 21:13:00,
2013-07-15 16:18:00,83.6,67.8,30.07,WSW,239,8.0,11.0,59,0.00,,---,0.00,VWS V14.01,2013-07-15 21:18:00,
2013-07-15 16:23:00,83.8,66.4,30.07,WSW,237,8.0,11.0,56,0.00,,---,0.00,VWS V14.01,2013-07-15 21:23:00,
2013-07-15 16:28:00,83.2,66.4,30.07,SSW,212,11.0,11.0,57,0.00,,---,0.00,VWS V14.01,2013-07-15 21:28:00,
2013-07-15 16:33:00,83.4,67.1,30.08,SSW,198,7.0,10.0,58,0.00,,---,0.00,VWS V14.01,2013-07-15 21:33:00,
2013-07-15 16:38:00,83.4,67.6,30.08,SSW,193,3.0,10.0,59,0.00,,---,0.00,VWS V14.01,2013-07-15 21:38:00,
2013-07-15 16:43:00,83.2,66.9,30.08,SSW,209,6.0,10.0,58,0.00,,---,0.00,VWS V14.01,2013-07-15 21:43:00,
2013-07-15 16:48:00,83.2,66.9,30.07,SSW,200,6.0,12.0,58,0.00,,---,0.00,VWS V14.01,2013-07-15 21:48:00,
2013-07-15 16:53:00,82.8,67.0,30.07,South,178,9.0,12.0,59,0.00,,---,0.00,VWS V14.01,2013-07-15 21:53:00,
2013-07-15 16:58:00,83.0,67.2,30.07,SSW,208,10.0,12.0,59,0.00,,---,0.00,VWS V14.01,2013-07-15 21:58:00,
2013-07-15 17:03:00,82.6,66.3,30.07,South,182,12.0,12.0,58,0.00,,---,0.00,VWS V14.01,2013-07-15 22:03:00,
2013-07-15 17:08:00,83.0,66.2,30.07,South,189,8.0,13.0,57,0.00,,---,0.00,VWS V14.01,2013-07-15 22:08:00,
2013-07-15 17:13:00,83.6,67.3,30.07,SSW,212,7.0,7.0,58,0.00,,---,0.00,VWS V14.01,2013-07-15 22:13:00,
2013-07-15 17:19:00,83.4,66.6,30.06,SSW,195,9.0,16.0,57,0.00,,---,0.00,VWS V14.01,2013-07-15 22:19:00,
2013-07-15 17:24:00,83.4,66.6,30.06,SSW,208,6.0,11.0,57,0.00,,---,0.00,VWS V14.01,2013-07-15 22:24:00,
2013-07-15 17:29:00,83.4,66.6,30.06,SSW,202,4.0,11.0,57,0.00,,---,0.00,VWS V14.01,2013-07-15 22:29:00,
2013-07-15 17:34:00,83.4,68.1,30.06,SSW,206,5.0,13.0,60,0.00,,---,0.00,VWS V14.01,2013-07-15 22:34:00,
2013-07-15 17:39:00,83.2,65.4,30.06,SSW,205,9.0,13.0,55,0.00,,---,0.00,VWS V14.01,2013-07-15 22:39:00,
2013-07-15 17:44:00,83.2,66.9,30.06,SW,222,5.0,10.0,58,0.00,,---,0.00,VWS V14.01,2013-07-15 22:44:00,
2013-07-15 17:49:00,83.2,65.9,30.06,SSW,200,6.0,13.0,56,0.00,,---,0.00,VWS V14.01,2013-07-15 22:49:00,
2013-07-15 17:54:00,83.0,66.7,30.06,WSW,237,8.0,11.0,58,0.00,,---,0.00,VWS V14.01,2013-07-15 22:54:00,
2013-07-15 17:59:00,82.8,66.5,30.06,South,186,11.0,11.0,58,0.00,,---,0.00,VWS V14.01,2013-07-15 22:59:00,
2013-07-15 18:04:00,82.6,66.3,30.06,SSW,209,5.0,10.0,58,0.00,,---,0.00,VWS V14.01,2013-07-15 23:04:00,
2013-07-15 18:09:00,82.6,65.3,30.06,SSW,200,5.0,13.0,56,0.00,,---,0.00,VWS V14.01,2013-07-15 23:09:00,
2013-07-15 18:14:00,82.6,65.8,30.06,SSW,199,6.0,12.0,57,0.00,,---,0.00,VWS V14.01,2013-07-15 23:14:00,
2013-07-15 18:19:00,82.4,65.1,30.06,SSW,195,7.0,12.0,56,0.00,,---,0.00,VWS V14.01,2013-07-15 23:19:00,
2013-07-15 18:24:00,82.4,66.2,30.06,South,191,7.0,8.0,58,0.00,,---,0.00,VWS V14.01,2013-07-15 23:24:00,
2013-07-15 18:29:00,82.4,66.7,30.06,SSW,192,5.0,9.0,59,0.00,,---,0.00,VWS V14.01,2013-07-15 23:29:00,
2013-07-15 18:34:00,82.4,65.7,30.06,SSW,195,11.0,12.0,57,0.00,,---,0.00,VWS V14.01,2013-07-15 23:34:00,
2013-07-15 18:39:00,82.2,65.5,30.06,SSW,199,2.0,12.0,57,0.00,,---,0.00,VWS V14.01,2013-07-15 23:39:00,
2013-07-15 18:44:00,82.2,66.0,30.06,WSW,239,7.0,9.0,58,0.00,,---,0.00,VWS V14.01,2013-07-15 23:44:00,
2013-07-15 18:49:00,82.0,65.8,30.06,SSW,212,3.0,10.0,58,0.00,,---,0.00,VWS V14.01,2013-07-15 23:49:00,
2013-07-15 18:54:00,82.0,66.3,30.06,SSW,213,2.0,10.0,59,0.00,,---,0.00,VWS V14.01,2013-07-15 23:54:00,
2013-07-15 18:59:00,81.8,66.1,30.06,SSW,205,3.0,10.0,59,0.00,,---,0.00,VWS V14.01,2013-07-15 23:59:00,
2013-07-15 19:04:00,81.8,66.6,30.05,SSW,192,3.0,7.0,60,0.00,,---,0.00,VWS V14.01,2013-07-16 00:04:00,
2013-07-15 19:09:00,81.6,66.4,30.05,SSW,202,2.0,8.0,60,0.00,,---,0.00,VWS V14.01,2013-07-16 00:09:00,
2013-07-15 19:14:00,81.6,66.4,30.05,SSW,193,2.0,7.0,60,0.00,,---,0.00,VWS V14.01,2013-07-16 00:14:00,
2013-07-15 19:20:00,81.4,66.2,30.05,SSW,196,6.0,7.0,60,0.00,,---,0.00,VWS V14.01,2013-07-16 00:20:00,
2013-07-15 19:25:00,81.4,67.1,30.05,SSW,199,1.0,5.0,62,0.00,,---,0.00,VWS V14.01,2013-07-16 00:25:00,
2013-07-15 19:30:00,81.2,66.9,30.05,SSW,198,1.0,5.0,62,0.00,,---,0.00,VWS V14.01,2013-07-16 00:30:00,
2013-07-15 19:35:00,81.1,67.8,30.05,SSW,192,1.0,3.0,64,0.00,,---,0.00,VWS V14.01,2013-07-16 00:35:00,
2013-07-15 19:40:00,80.9,67.6,30.05,SSW,196,0.0,4.0,64,0.00,,---,0.00,VWS V14.01,2013-07-16 00:40:00,
2013-07-15 19:45:00,80.5,67.7,30.04,SSW,195,1.0,3.0,65,0.00,,---,0.00,VWS V14.01,2013-07-16 00:45:00,
2013-07-15 19:50:00,80.3,67.9,30.04,SSW,196,0.0,3.0,66,0.00,,---,0.00,VWS V14.01,2013-07-16 00:50:00,
2013-07-15 19:55:00,80.1,68.2,30.04,SSW,198,1.0,2.0,67,0.00,,---,0.00,VWS V14.01,2013-07-16 00:55:00,
2013-07-15 20:00:00,79.6,68.5,30.04,SSW,198,1.0,3.0,69,0.00,,---,0.00,VWS V14.01,2013-07-16 01:00:00,
2013-07-15 20:05:00,79.2,68.2,30.04,SSW,196,3.0,3.0,69,0.00,,---,0.00,VWS V14.01,2013-07-16 01:05:00,
2013-07-15 20:10:00,78.8,68.2,30.04,SSW,195,2.0,3.0,70,0.00,,---,0.00,VWS V14.01,2013-07-16 01:10:00,
2013-07-15 20:15:00,78.5,67.9,30.04,SSW,196,2.0,2.0,70,0.00,,---,0.00,VWS V14.01,2013-07-16 01:15:00,
2013-07-15 20:20:00,78.1,67.9,30.04,SSW,192,2.0,5.0,71,0.00,,---,0.00,VWS V14.01,2013-07-16 01:20:00,
2013-07-15 20:25:00,78.1,67.5,30.04,South,186,2.0,3.0,70,0.00,,---,0.00,VWS V14.01,2013-07-16 01:25:00,
2013-07-15 20:30:00,77.9,67.3,30.04,South,179,1.0,3.0,70,0.00,,---,0.00,VWS V14.01,2013-07-16 01:30:00,
2013-07-15 20:35:00,77.7,67.1,30.04,South,182,1.0,3.0,70,0.00,,---,0.00,VWS V14.01,2013-07-16 01:35:00,
2013-07-15 20:40:00,77.7,67.1,30.04,South,185,3.0,3.0,70,0.00,,---,0.00,VWS V14.01,2013-07-16 01:40:00,
2013-07-15 20:45:00,77.6,67.1,30.04,South,184,1.0,3.0,70,0.00,,---,0.00,VWS V14.01,2013-07-16 01:45:00,
2013-07-15 20:50:00,77.4,67.3,30.04,South,184,0.0,3.0,71,0.00,,---,0.00,VWS V14.01,2013-07-16 01:50:00,
2013-07-15 20:55:00,77.4,67.7,30.04,South,184,0.0,0.0,72,0.00,,---,0.00,VWS V14.01,2013-07-16 01:55:00,
2013-07-15 21:00:00,77.2,67.5,30.04,South,184,0.0,0.0,72,0.00,,---,0.00,VWS V14.01,2013-07-16 02:00:00,
2013-07-15 21:05:00,77.0,67.3,30.04,South,179,0.0,1.0,72,0.00,,---,0.00,VWS V14.01,2013-07-16 02:05:00,
2013-07-15 21:10:00,76.8,67.1,30.04,South,179,0.0,1.0,72,0.00,,---,0.00,VWS V14.01,2013-07-16 02:10:00,
2013-07-15 21:15:00,76.7,67.0,30.04,South,175,1.0,1.0,72,0.00,,---,0.00,VWS V14.01,2013-07-16 02:15:00,
2013-07-15 21:20:00,76.7,67.4,30.04,South,178,0.0,1.0,73,0.00,,---,0.00,VWS V14.01,2013-07-16 02:20:00,
2013-07-15 21:25:00,76.5,67.6,30.04,South,171,1.0,1.0,74,0.00,,---,0.00,VWS V14.01,2013-07-16 02:25:00,
2013-07-15 21:30:00,76.3,67.4,30.04,South,172,0.0,1.0,74,0.00,,---,0.00,VWS V14.01,2013-07-16 02:30:00,
2013-07-15 21:35:00,76.1,67.6,30.04,South,172,0.0,1.0,75,0.00,,---,0.00,VWS V14.01,2013-07-16 02:35:00,
2013-07-15 21:40:00,76.0,67.5,30.04,South,172,0.0,2.0,75,0.00,,---,0.00,VWS V14.01,2013-07-16 02:40:00,
2013-07-15 21:45:00,75.8,67.7,30.05,South,179,0.0,2.0,76,0.00,,---,0.00,VWS V14.01,2013-07-16 02:45:00,
2013-07-15 21:51:00,75.6,67.5,30.05,South,179,0.0,2.0,76,0.00,,---,0.00,VWS V14.01,2013-07-16 02:51:00,
2013-07-15 21:56:00,75.4,67.3,30.05,South,181,0.0,3.0,76,0.00,,---,0.00,VWS V14.01,2013-07-16 02:56:00,
2013-07-15 22:01:00,75.4,67.7,30.04,South,184,1.0,3.0,77,0.00,,---,0.00,VWS V14.01,2013-07-16 03:01:00,
2013-07-15 22:06:00,75.3,67.6,30.04,South,186,1.0,5.0,77,0.00,,---,0.00,VWS V14.01,2013-07-16 03:06:00,
2013-07-15 22:11:00,75.1,67.8,30.04,South,189,6.0,6.0,78,0.00,,---,0.00,VWS V14.01,2013-07-16 03:11:00,
2013-07-15 22:16:00,75.1,67.8,30.04,SSW,193,1.0,6.0,78,0.00,,---,0.00,VWS V14.01,2013-07-16 03:16:00,
2013-07-15 22:21:00,75.1,67.8,30.04,South,188,3.0,3.0,78,0.00,,---,0.00,VWS V14.01,2013-07-16 03:21:00,
2013-07-15 22:26:00,74.9,67.6,30.04,South,191,3.0,7.0,78,0.00,,---,0.00,VWS V14.01,2013-07-16 03:26:00,
2013-07-15 22:31:00,74.7,67.8,30.04,SSW,198,3.0,7.0,79,0.00,,---,0.00,VWS V14.01,2013-07-16 03:31:00,
2013-07-15 22:36:00,74.6,68.0,30.04,SSW,195,2.0,6.0,80,0.00,,---,0.00,VWS V14.01,2013-07-16 03:36:00,
2013-07-15 22:41:00,74.2,67.6,30.04,SSW,195,1.0,2.0,80,0.00,,---,0.00,VWS V14.01,2013-07-16 03:41:00,
2013-07-15 22:46:00,74.2,67.6,30.04,SSW,196,0.0,2.0,80,0.00,,---,0.00,VWS V14.01,2013-07-16 03:46:00,
2013-07-15 22:51:00,74.2,67.6,30.04,SSW,195,1.0,2.0,80,0.00,,---,0.00,VWS V14.01,2013-07-16 03:51:00,
2013-07-15 22:56:00,74.2,67.6,30.04,SSW,195,2.0,3.0,80,0.00,,---,0.00,VWS V14.01,2013-07-16 03:56:00,
2013-07-15 23:01:00,74.0,67.8,30.04,SSW,195,2.0,3.0,81,0.00,,---,0.00,VWS V14.01,2013-07-16 04:01:00,
2013-07-15 23:06:00,73.9,68.1,30.04,SSW,195,3.0,5.0,82,0.00,,---,0.00,VWS V14.01,2013-07-16 04:06:00,
2013-07-15 23:11:00,73.5,67.7,30.04,SSW,200,1.0,1.0,82,0.00,,---,0.00,VWS V14.01,2013-07-16 04:11:00,
2013-07-15 23:16:00,73.3,67.8,30.04,SSW,202,1.0,2.0,83,0.00,,---,0.00,VWS V14.01,2013-07-16 04:16:00,
2013-07-15 23:21:00,73.2,68.1,30.04,South,191,2.0,2.0,84,0.00,,---,0.00,VWS V14.01,2013-07-16 04:21:00,
2013-07-15 23:26:00,73.0,67.9,30.04,SSW,196,3.0,3.0,84,0.00,,---,0.00,VWS V14.01,2013-07-16 04:26:00,
2013-07-15 23:31:00,73.2,67.7,30.04,SSW,200,3.0,3.0,83,0.00,,---,0.00,VWS V14.01,2013-07-16 04:31:00,
2013-07-15 23:36:00,73.3,67.8,30.04,SSW,208,0.0,3.0,83,0.00,,---,0.00,VWS V14.01,2013-07-16 04:36:00,
2013-07-15 23:41:00,73.2,68.1,30.04,SSW,206,0.0,1.0,84,0.00,,---,0.00,VWS V14.01,2013-07-16 04:41:00,
2013-07-15 23:46:00,73.0,67.9,30.04,SSW,198,1.0,2.0,84,0.00,,---,0.00,VWS V14.01,2013-07-16 04:46:00,
2013-07-15 23:51:00,72.7,67.9,30.04,SSW,200,0.0,1.0,85,0.00,,---,0.00,VWS V14.01,2013-07-16 04:51:00,
2013-07-15 23:56:00,72.5,67.7,30.04,SSW,205,1.0,2.0,85,0.00,,---,0.00,VWS V14.01,2013-07-16 04:56:00,